TimeCST,TemperatureF,Dew PointF,Humidity,Sea Level PressureIn,VisibilityMPH,Wind Direction,Wind SpeedMPH,Gust SpeedMPH,PrecipitationIn,Events,Conditions,WindDirDegrees,DateUTC
12:15 AM,41.0,35.6,81,30.12,10.0,Calm,Calm,-,N/A,,Clear,0,2012-11-06 06:15:00
12:35 AM,41.0,35.6,81,30.12,10.0,Calm,Calm,-,N/A,,Clear,0,2012-11-06 06:35:00
12:55 AM,39.2,35.6,87,30.12,10.0,Calm,Calm,-,N/A,,Clear,0,2012-11-06 06:55:00
1:15 AM,39.2,37.4,93,30.12,10.0,Calm,Calm,-,N/A,,Clear,0,2012-11-06 07:15:00
1:35 AM,39.2,35.6,87,30.12,10.0,Calm,Calm,-,N/A,,Clear,0,2012-11-06 07:35:00
1:55 AM,37.4,33.8,87,30.12,10.0,NE,4.6,-,N/A,,Clear,50,2012-11-06 07:55:00
2:15 AM,35.6,35.6,100,30.12,10.0,Calm,Calm,-,N/A,,Clear,0,2012-11-06 08:15:00
2:35 AM,37.4,35.6,93,30.12,10.0,WSW,4.6,-,N/A,,Clear,250,2012-11-06 08:35:00
2:55 AM,37.4,35.6,93,30.11,10.0,Calm,Calm,-,N/A,,Clear,0,2012-11-06 08:55:00
3:15 AM,35.6,33.8,93,30.12,10.0,WSW,3.5,-,N/A,,Clear,250,2012-11-06 09:15:00
3:35 AM,35.6,33.8,93,30.12,10.0,Calm,Calm,-,N/A,,Clear,0,2012-11-06 09:35:00
3:55 AM,33.8,32.0,93,30.12,10.0,NE,3.5,-,N/A,,Clear,40,2012-11-06 09:55:00
4:15 AM,35.6,33.8,93,30.12,10.0,Calm,Calm,-,N/A,,Clear,0,2012-11-06 10:15:00
4:35 AM,35.6,33.8,93,30.13,10.0,WSW,4.6,-,N/A,,Clear,250,2012-11-06 10:35:00
4:55 AM,35.6,33.8,93,30.13,10.0,Calm,Calm,-,N/A,,Clear,0,2012-11-06 10:55:00
5:15 AM,35.6,33.8,93,30.14,10.0,Calm,Calm,-,N/A,,Clear,0,2012-11-06 11:15:00
5:35 AM,33.8,33.8,100,30.14,10.0,Calm,Calm,-,N/A,,Clear,0,2012-11-06 11:35:00
3:55 PM,73.4,41.0,31,30.05,10.0,West,6.9,-,N/A,,Clear,270,2012-11-06 21:55:00
6:55 PM,55.4,42.8,63,30.08,10.0,Calm,Calm,-,N/A,,Clear,0,2012-11-07 00:55:00
10:35 PM,51.8,42.8,71,30.13,10.0,Calm,Calm,-,N/A,,Clear,0,2012-11-07 04:35:00
10:55 PM,50.0,41.0,71,30.13,10.0,Calm,Calm,-,N/A,,Clear,0,2012-11-07 04:55:00
11:15 PM,50.0,42.8,76,30.14,10.0,Calm,Calm,-,N/A,,Clear,0,2012-11-07 05:15:00
11:35 PM,46.4,42.8,87,30.13,10.0,Calm,Calm,-,N/A,,Clear,0,2012-11-07 05:35:00
11:55 PM,48.2,41.0,76,30.13,10.0,Calm,Calm,-,N/A,,Clear,0,2012-11-07 05:55:00